QPF
0.01 0.03 0.05 0.06 0.08 0.09 0.07 0.06 0.07 0.06 0.06 0.04 0.02 0.01 0.00 0.00 0.02 0.03 0.04 0.05 0.07 0.09 0.08 0.08 0.07 0.06 0.06 0.06 0.06 0.04 0.04 0.03 0.04 0.04 0.05 0.04 0.03 0.03 0.04 0.04 0.04 0.05 0.06
0.01 0.02 0.03 0.02 0.03 0.04 0.04 0.03 0.03 0.05 0.05 0.04 0.01 0.00 0.00 0.00 0.02 0.03 0.04 0.04 0.04 0.05 0.04 0.04 0.05 0.06 0.08 0.09 0.08 0.05 0.03 0.03 0.05 0.06 0.09 0.08 0.05 0.05 0.06 0.05 0.04 0.04 0.05
0.01 0.01 0.01 0.01 0.02 0.02 0.02 0.02 0.02 0.03 0.04 0.03 0.01 0.01 0.00 0.00 0.01 0.01 0.04 0.05 0.05 0.04 0.03 0.03 0.04 0.07 0.09 0.09 0.08 0.06 0.05 0.05 0.05 0.06 0.06 0.07 0.07 0.07 0.06 0.05 0.05 0.05 0.05
0.01 0.01 0.01 0.01 0.01 0.01 0.01 0.01 0.02 0.02 0.03 0.02 0.01 0.01 0.00 0.00 0.01 0.01 0.03 0.04 0.06 0.03 0.01 0.02 0.04 0.05 0.06 0.09 0.10 0.09 0.06 0.04 0.04 0.05 0.06 0.06 0.07 0.10 0.10 0.07 0.05 0.04 0.05
0.01 0.02 0.01 0.01 0.01 0.01 0.00 0.01 0.01 0.01 0.01 0.01 0.01 0.01 0.01 0.01 0.01 0.01 0.02 0.02 0.02 0.02 0.01 0.01 0.01 0.03 0.04 0.06 0.08 0.11 0.08 0.05 0.04 0.04 0.04 0.05 0.06 0.07 0.07 0.08 0.08 0.06 0.05
0.02 0.01 0.01 0.01 0.01 0.01 0.01 0.01 0.01 0.00 0.00 0.01 0.01 0.01 0.01 0.02 0.03 0.01 0.01 0.01 0.02 0.01 0.01 0.01 0.01 0.02 0.02 0.05 0.07 0.08 0.08 0.07 0.06 0.05 0.04 0.05 0.06 0.06 0.05 0.06 0.07 0.07 0.07
0.03 0.02 0.01 0.01 0.01 0.02 0.02 0.02 0.01 0.01 0.00 0.01 0.01 0.01 0.01 0.03 0.04 0.03 0.01 0.01 0.01 0.01 0.02 0.02 0.01 0.01 0.02 0.03 0.06 0.09 0.10 0.10 0.08 0.07 0.06 0.05 0.04 0.05 0.06 0.08 0.09 0.08 0.07
0.03 0.02 0.01 0.01 0.01 0.02 0.02 0.02 0.02 0.01 0.01 0.01 0.01 0.01 0.01 0.02 0.05 0.06 0.03 0.01 0.01 0.01 0.02 0.02 0.01 0.01 0.01 0.02 0.03 0.07 0.09 0.10 0.10 0.08 0.06 0.05 0.04 0.04 0.07 0.15 0.13 0.08 0.07
0.03 0.03 0.02 0.01 0.01 0.02 0.02 0.02 0.02 0.02 0.02 0.02 0.02 0.01 0.01 0.01 0.02 0.03 0.02 0.01 0.01 0.01 0.01 0.00 0.00 0.00 0.00 0.02 0.02 0.03 0.06 0.08 0.09 0.07 0.06 0.06 0.05 0.04 0.04 0.06 0.06 0.05 0.09
0.02 0.03 0.02 0.02 0.02 0.01 0.02 0.02 0.02 0.02 0.03 0.03 0.02 0.02 0.01 0.01 0.01 0.02 0.01 0.01 0.01 0.01 0.00 0.00 0.00 0.00 0.00 0.01 0.01 0.02 0.05 0.06 0.06 0.07 0.07 0.07 0.06 0.05 0.04 0.03 0.04 0.04 0.05
0.01 0.02 0.02 0.02 0.02 0.01 0.02 0.02 0.02 0.02 0.03 0.03 0.03 0.03 0.02 0.01 0.01 0.02 0.02 0.01 0.01 0.01 0.00 0.00 0.01 0.01 0.00 0.01 0.01 0.02 0.03 0.05 0.06 0.05 0.06 0.06 0.06 0.05 0.05 0.03 0.03 0.04 0.05
0.01 0.01 0.01 0.01 0.02 0.01 0.01 0.01 0.02 0.02 0.03 0.04 0.03 0.03 0.03 0.02 0.01 0.01 0.01 0.01 0.01 0.01 0.00 0.00 0.01 0.01 0.01 0.01 0.01 0.01 0.02 0.03 0.04 0.05 0.05 0.05 0.05 0.04 0.05 0.05 0.03 0.04 0.07
0.01 0.01 0.00 0.01 0.01 0.01 0.01 0.02 0.02 0.02 0.03 0.03 0.03 0.03 0.02 0.02 0.01 0.01 0.02 0.02 0.02 0.01 0.01 0.01 0.01 0.01 0.01 0.01 0.01 0.01 0.01 0.02 0.02 0.02 0.02 0.03 0.04 0.04 0.04 0.04 0.02 0.03 0.08
0.01 0.00 0.00 0.00 0.01 0.01 0.01 0.01 0.03 0.02 0.02 0.02 0.01 0.01 0.01 0.01 0.01 0.01 0.02 0.03 0.02 0.01 0.01 0.01 0.01 0.01 0.01 0.01 0.00 0.01 0.01 0.01 0.01 0.01 0.02 0.01 0.02 0.03 0.03 0.03 0.02 0.03 0.05
0.00 0.00 0.01 0.00 0.00 0.01 0.01 0.01 0.03 0.02 0.03 0.02 0.02 0.01 0.01 0.01 0.01 0.02 0.02 0.02 0.03 0.03 0.02 0.02 0.02 0.01 0.01 0.01 0.01 0.00 0.00 0.01 0.01 0.01 0.02 0.02 0.01 0.02 0.03 0.02 0.01 0.02 0.03
0.00 0.00 0.01 0.01 0.01 0.01 0.01 0.01 0.02 0.02 0.03 0.03 0.02 0.02 0.01 0.01 0.01 0.01 0.01 0.02 0.02 0.03 0.03 0.02 0.02 0.01 0.01 0.01 0.00 0.00 0.00 0.01 0.01 0.02 0.02 0.02 0.02 0.02 0.02 0.02 0.02 0.02 0.01
0.00 0.01 0.01 0.02 0.02 0.01 0.01 0.01 0.01 0.01 0.01 0.02 0.02 0.02 0.01 0.01 0.01 0.01 0.01 0.01 0.01 0.01 0.02 0.02 0.02 0.02 0.02 0.01 0.01 0.01 0.01 0.01 0.01 0.02 0.02 0.02 0.02 0.02 0.02 0.02 0.03 0.03 0.02
0.01 0.01 0.01 0.02 0.03 0.02 0.01 0.01 0.01 0.01 0.01 0.01 0.01 0.01 0.01 0.02 0.02 0.01 0.01 0.01 0.01 0.01 0.02 0.02 0.02 0.02 0.02 0.02 0.02 0.01 0.01 0.01 0.01 0.01 0.02 0.02 0.02 0.02 0.02 0.02 0.03 0.03 0.02
0.01 0.01 0.02 0.03 0.03 0.02 0.02 0.02 0.01 0.01 0.01 0.01 0.01 0.01 0.01 0.01 0.02 0.02 0.02 0.01 0.01 0.01 0.02 0.02 0.02 0.02 0.02 0.03 0.03 0.02 0.02 0.01 0.01 0.01 0.02 0.02 0.02 0.02 0.02 0.02 0.02 0.02 0.03
0.01 0.01 0.02 0.02 0.02 0.01 0.01 0.01 0.01 0.01 0.01 0.01 0.01 0.01 0.01 0.01 0.01 0.01 0.02 0.02 0.02 0.02 0.02 0.02 0.02 0.02 0.02 0.03 0.04 0.04 0.03 0.03 0.02 0.02 0.02 0.02 0.02 0.03 0.03 0.03 0.02 0.02 0.03
0.01 0.02 0.02 0.01 0.01 0.01 0.01 0.01 0.01 0.01 0.01 0.01 0.01 0.01 0.01 0.01 0.01 0.01 0.01 0.01 0.02 0.02 0.03 0.02 0.01 0.01 0.01 0.02 0.03 0.03 0.03 0.03 0.03 0.02 0.02 0.02 0.02 0.03 0.05 0.04 0.02 0.01 0.02
0.01 0.02 0.02 0.01 0.02 0.01 0.01 0.01 0.01 0.01 0.01 0.01 0.01 0.02 0.02 0.01 0.01 0.00 0.01 0.01 0.01 0.02 0.03 0.03 0.01 0.01 0.01 0.01 0.02 0.02 0.02 0.03 0.04 0.03 0.02 0.03 0.02 0.03 0.04 0.04 0.03 0.02 0.02
0.02 0.01 0.01 0.01 0.02 0.02 0.01 0.01 0.01 0.00 0.00 0.01 0.01 0.02 0.02 0.02 0.01 0.00 0.01 0.01 0.01 0.02 0.03 0.03 0.02 0.01 0.01 0.01 0.01 0.02 0.02 0.02 0.02 0.03 0.03 0.04 0.05 0.05 0.04 0.04 0.04 0.03 0.02
0.02 0.01 0.01 0.01 0.01 0.02 0.01 0.01 0.01 0.00 0.00 0.01 0.01 0.01 0.02 0.02 0.02 0.01 0.01 0.01 0.02 0.02 0.02 0.03 0.03 0.02 0.02 0.01 0.02 0.02 0.02 0.03 0.03 0.04 0.04 0.05 0.05 0.06 0.05 0.04 0.04 0.03 0.02
0.02 0.02 0.02 0.02 0.01 0.01 0.01 0.01 0.01 0.01 0.01 0.01 0.01 0.01 0.01 0.01 0.02 0.02 0.02 0.02 0.02 0.02 0.02 0.02 0.04 0.04 0.04 0.04 0.04 0.03 0.03 0.03 0.04 0.05 0.04 0.03 0.04 0.06 0.06 0.06 0.05 0.04 0.03
0.01 0.01 0.01 0.02 0.02 0.01 0.01 0.01 0.01 0.01 0.01 0.00 0.00 0.01 0.01 0.01 0.02 0.02 0.02 0.02 0.02 0.02 0.02 0.02 0.03 0.06 0.05 0.05 0.05 0.05 0.06 0.05 0.04 0.04 0.04 0.03 0.03 0.05 0.06 0.06 0.05 0.05 0.04
MSLP
1018.49 1018.67 1018.81 1018.91 1018.99 1019.04 1019.08 1019.11 1019.13 1019.13 1019.10 1019.04 1018.96 1018.87 1018.79 1018.73 1018.71 1018.71 1018.72 1018.70 1018.61 1018.42 1018.09 1017.64 1017.06 1016.42 1015.75 1015.11 1014.52 1014.00 1013.53 1013.07 1012.57 1011.99 1011.28 1010.46 1009.54 1008.59 1007.69 1006.92 1006.38 1006.10 1006.12
1018.83 1018.98 1019.09 1019.18 1019.25 1019.30 1019.35 1019.40 1019.44 1019.46 1019.46 1019.42 1019.35 1019.27 1019.18 1019.12 1019.08 1019.06 1019.06 1019.04 1018.95 1018.76 1018.44 1017.99 1017.42 1016.76 1016.07 1015.40 1014.78 1014.22 1013.73 1013.25 1012.73 1012.13 1011.39 1010.51 1009.50 1008.43 1007.38 1006.44 1005.71 1005.27 1005.16
1019.13 1019.24 1019.32 1019.39 1019.45 1019.50 1019.56 1019.63 1019.69 1019.75 1019.77 1019.76 1019.72 1019.64 1019.56 1019.48 1019.42 1019.38 1019.35 1019.31 1019.21 1019.02 1018.72 1018.28 1017.73 1017.08 1016.38 1015.70 1015.05 1014.47 1013.94 1013.43 1012.89 1012.26 1011.48 1010.54 1009.45 1008.25 1007.04 1005.92 1005.00 1004.38 1004.13
1019.38 1019.46 1019.51 1019.56 1019.61 1019.66 1019.73 1019.81 1019.90 1019.98 1020.04 1020.05 1020.03 1019.97 1019.88 1019.78 1019.70 1019.63 1019.58 1019.51 1019.41 1019.22 1018.94 1018.53 1018.00 1017.37 1016.69 1016.00 1015.34 1014.73 1014.17 1013.63 1013.05 1012.38 1011.55 1010.55 1009.38 1008.07 1006.71 1005.42 1004.32 1003.52 1003.09
1019.59 1019.64 1019.67 1019.71 1019.75 1019.80 1019.87 1019.96 1020.06 1020.15 1020.23 1020.26 1020.26 1020.20 1020.12 1020.02 1019.92 1019.83 1019.75 1019.66 1019.55 1019.38 1019.12 1018.74 1018.25 1017.66 1017.01 1016.33 1015.66 1015.03 1014.44 1013.85 1013.23 1012.52 1011.65 1010.60 1009.35 1007.95 1006.48 1005.05 1003.78 1002.81 1002.22
1019.74 1019.77 1019.80 1019.82 1019.86 1019.91 1019.98 1020.06 1020.16 1020.25 1020.33 1020.38 1020.39 1020.35 1020.27 1020.17 1020.06 1019.96 1019.87 1019.78 1019.67 1019.52 1019.29 1018.96 1018.52 1017.98 1017.37 1016.71 1016.04 1015.39 1014.77 1014.14 1013.48 1012.73 1011.83 1010.74 1009.46 1008.01 1006.46 1004.93 1003.54 1002.43 1001.69
1019.81 1019.84 1019.88 1019.91 1019.95 1019.99 1020.05 1020.12 1020.20 1020.28 1020.36 1020.41 1020.42 1020.39 1020.33 1020.24 1020.14 1020.04 1019.95 1019.87 1019.78 1019.65 1019.47 1019.20 1018.82 1018.35 1017.78 1017.16 1016.51 1015.85 1015.20 1014.54 1013.85 1013.07 1012.16 1011.06 1009.78 1008.33 1006.77 1005.20 1003.74 1002.54 1001.70
1019.81 1019.86 1019.91 1019.95 1020.00 1020.04 1020.08 1020.13 1020.18 1020.24 1020.29 1020.34 1020.35 1020.34 1020.29 1020.22 1020.14 1020.06 1019.99 1019.93 1019.87 1019.79 1019.66 1019.46 1019.16 1018.75 1018.25 1017.68 1017.05 1016.40 1015.74 1015.07 1014.36 1013.58 1012.68 1011.61 1010.37 1008.97 1007.46 1005.92 1004.47 1003.24 1002.34
1019.74 1019.80 1019.87 1019.93 1019.99 1020.02 1020.05 1020.07 1020.09 1020.12 1020.15 1020.18 1020.19 1020.19 1020.16 1020.12 1020.06 1020.01 1019.97 1019.94 1019.92 1019.89 1019.83 1019.70 1019.49 1019.17 1018.75 1018.24 1017.66 1017.04 1016.39 1015.72 1015.02 1014.26 1013.39 1012.40 1011.25 1009.95 1008.55 1007.11 1005.74 1004.55 1003.65
1019.59 1019.67 1019.76 1019.84 1019.90 1019.93 1019.94 1019.93 1019.93 1019.92 1019.93 1019.94 1019.95 1019.96 1019.95 1019.93 1019.90 1019.87 1019.87 1019.88 1019.90 1019.93 1019.94 1019.89 1019.77 1019.54 1019.21 1018.78 1018.26 1017.69 1017.08 1016.44 1015.77 1015.06 1014.26 1013.37 1012.35 1011.20 1009.96 1008.68 1007.45 1006.36 1005.52
1019.38 1019.47 1019.57 1019.65 1019.71 1019.74 1019.73 1019.71 1019.68 1019.65 1019.63 1019.63 1019.64 1019.64 1019.65 1019.64 1019.64 1019.64 1019.66 1019.70 1019.77 1019.85 1019.93 1019.96 1019.93 1019.81 1019.57 1019.24 1018.80 1018.30 1017.75 1017.16 1016.55 1015.91 1015.21 1014.44 1013.57 1012.60 1011.55 1010.47 1009.42 1008.49 1007.75
1019.11 1019.19 1019.28 1019.36 1019.41 1019.44 1019.42 1019.39 1019.34 1019.30 1019.27 1019.26 1019.26 1019.26 1019.27 1019.27 1019.28 1019.30 1019.34 1019.41 1019.51 1019.64 1019.78 1019.89 1019.95 1019.92 1019.80 1019.57 1019.23 1018.82 1018.34 1017.83 1017.30 1016.74 1016.15 1015.51 1014.81 1014.03 1013.19 1012.32 1011.48 1010.72 1010.11
1018.76 1018.81 1018.89 1018.95 1019.00 1019.02 1019.01 1018.97 1018.93 1018.88 1018.85 1018.83 1018.83 1018.83 1018.84 1018.84 1018.85 1018.87 1018.92 1019.00 1019.13 1019.30 1019.49 1019.68 1019.82 1019.90 1019.88 1019.75 1019.53 1019.21 1018.84 1018.41 1017.97 1017.51 1017.04 1016.53 1015.98 1015.39 1014.75 1014.08 1013.43 1012.84 1012.37
1018.32 1018.35 1018.40 1018.45 1018.49 1018.50 1018.50 1018.48 1018.45 1018.42 1018.40 1018.38 1018.38 1018.38 1018.37 1018.37 1018.37 1018.38 1018.43 1018.53 1018.68 1018.88 1019.11 1019.36 1019.58 1019.75 1019.84 1019.82 1019.70 1019.50 1019.22 1018.90 1018.55 1018.20 1017.83 1017.45 1017.05 1016.61 1016.14 1015.66 1015.17 1014.74 1014.39
1017.81 1017.81 1017.83 1017.86 1017.89 1017.92 1017.94 1017.94 1017.94 1017.93 1017.93 1017.93 1017.93 1017.93 1017.92 1017.90 1017.89 1017.90 1017.95 1018.04 1018.21 1018.43 1018.71 1019.01 1019.30 1019.55 1019.73 1019.81 1019.80 1019.70 1019.53 1019.31 1019.06 1018.80 1018.54 1018.27 1017.98 1017.67 1017.35 1017.00 1016.65 1016.34 1016.08
1017.23 1017.21 1017.21 1017.23 1017.26 1017.31 1017.35 1017.39 1017.43 1017.46 1017.49 1017.51 1017.52 1017.52 1017.50 1017.48 1017.46 1017.46 1017.51 1017.62 1017.79 1018.04 1018.35 1018.69 1019.04 1019.36 1019.61 1019.78 1019.86 1019.86 1019.78 1019.66 1019.51 1019.34 1019.17 1018.99 1018.80 1018.60 1018.37 1018.13 1017.88 1017.65 1017.46
1016.62 1016.58 1016.58 1016.60 1016.65 1016.72 1016.79 1016.88 1016.96 1017.03 1017.10 1017.14 1017.17 1017.17 1017.16 1017.14 1017.12 1017.12 1017.18 1017.29 1017.49 1017.75 1018.09 1018.46 1018.85 1019.21 1019.52 1019.76 1019.92 1020.00 1020.01 1019.97 1019.90 1019.81 1019.72 1019.63 1019.52 1019.40 1019.25 1019.08 1018.90 1018.73 1018.57
1016.02 1015.99 1015.99 1016.03 1016.09 1016.19 1016.30 1016.42 1016.54 1016.66 1016.75 1016.82 1016.87 1016.89 1016.88 1016.87 1016.86 1016.88 1016.95 1017.09 1017.30 1017.58 1017.93 1018.32 1018.73 1019.12 1019.47 1019.75 1019.96 1020.10 1020.18 1020.21 1020.22 1020.21 1020.19 1020.17 1020.13 1020.08 1020.00 1019.89 1019.77 1019.64 1019.51
1015.47 1015.46 1015.48 1015.53 1015.62 1015.74 1015.88 1016.03 1016.18 1016.32 1016.44 1016.54 1016.60 1016.64 1016.65 1016.66 1016.68 1016.72 1016.81 1016.97 1017.20 1017.50 1017.85 1018.25 1018.66 1019.05 1019.41 1019.71 1019.95 1020.13 1020.26 1020.35 1020.42 1020.48 1020.53 1020.58 1020.61 1020.63 1020.61 1020.57 1020.50 1020.42 1020.34
1014.97 1015.00 1015.05 1015.12 1015.23 1015.36 1015.52 1015.69 1015.85 1016.00 1016.14 1016.25 1016.33 1016.39 1016.43 1016.46 1016.51 1016.59 1016.71 1016.89 1017.14 1017.44 1017.79 1018.18 1018.57 1018.94 1019.29 1019.59 1019.83 1020.03 1020.20 1020.34 1020.46 1020.58 1020.70 1020.81 1020.92 1021.00 1021.06 1021.09 1021.09 1021.08 1021.05
1014.53 1014.59 1014.67 1014.77 1014.88 1015.02 1015.17 1015.34 1015.50 1015.65 1015.79 1015.90 1016.00 1016.08 1016.15 1016.22 1016.31 1016.42 1016.58 1016.79 1017.04 1017.34 1017.68 1018.04 1018.40 1018.74 1019.06 1019.34 1019.58 1019.78 1019.97 1020.14 1020.31 1020.48 1020.65 1020.83 1021.00 1021.16 1021.30 1021.41 1021.50 1021.57 1021.62
1014.08 1014.19 1014.29 1014.40 1014.52 1014.65 1014.79 1014.93 1015.07 1015.21 1015.34 1015.46 1015.57 1015.67 1015.78 1015.89 1016.02 1016.18 1016.37 1016.60 1016.86 1017.15 1017.47 1017.79 1018.11 1018.41 1018.69 1018.94 1019.17 1019.37 1019.57 1019.76 1019.96 1020.17 1020.39 1020.62 1020.86 1021.08 1021.30 1021.50 1021.69 1021.85 1022.00
1013.56 1013.71 1013.84 1013.96 1014.08 1014.19 1014.30 1014.41 1014.52 1014.64 1014.75 1014.87 1015.00 1015.13 1015.28 1015.44 1015.62 1015.82 1016.04 1016.29 1016.55 1016.83 1017.12 1017.40 1017.68 1017.94 1018.19 1018.41 1018.63 1018.83 1019.03 1019.24 1019.47 1019.71 1019.96 1020.23 1020.50 1020.79 1021.07 1021.35 1021.62 1021.88 1022.13
1012.88 1013.08 1013.24 1013.37 1013.48 1013.58 1013.66 1013.74 1013.83 1013.92 1014.03 1014.15 1014.30 1014.46 1014.65 1014.86 1015.08 1015.33 1015.58 1015.84 1016.11 1016.38 1016.64 1016.89 1017.14 1017.37 1017.59 1017.80 1018.01 1018.22 1018.44 1018.66 1018.90 1019.16 1019.43 1019.71 1020.01 1020.32 1020.64 1020.97 1021.31 1021.65 1021.98
1012.01 1012.25 1012.45 1012.60 1012.71 1012.80 1012.86 1012.92 1012.99 1013.07 1013.18 1013.31 1013.48 1013.69 1013.92 1014.18 1014.45 1014.73 1015.01 1015.29 1015.56 1015.81 1016.06 1016.29 1016.52 1016.73 1016.95 1017.17 1017.39 1017.62 1017.86 1018.10 1018.35 1018.61 1018.88 1019.16 1019.45 1019.76 1020.08 1020.43 1020.79 1021.17 1021.56
1010.92 1011.22 1011.46 1011.64 1011.78 1011.87 1011.93 1011.99 1012.05 1012.13 1012.25 1012.41 1012.61 1012.85 1013.13 1013.43 1013.74 1014.06 1014.36 1014.65 1014.92 1015.17 1015.40 1015.63 1015.85 1016.07 1016.30 1016.55 1016.80 1017.06 1017.33 1017.60 1017.87 1018.13 1018.38 1018.63 1018.89 1019.17 1019.46 1019.78 1020.14 1020.52 1020.92
Thickness
5721 5721 5720 5719 5720 5719 5719 5719 5720 5719 5719 5720 5720 5720 5721 5721 5721 5721 5719 5717 5718 5719 5720 5720 5720 5721 5721 5721 5721 5721 5720 5720 5720 5720 5720 5720 5720 5720 5720 5720 5719 5719 5719
5717 5717 5716 5715 5715 5714 5715 5715 5715 5714 5714 5714 5713 5713 5714 5715 5715 5715 5715 5714 5712 5713 5714 5715 5715 5715 5716 5716 5716 5716 5715 5715 5715 5714 5715 5715 5715 5715 5714 5714 5714 5714 5714
5714 5713 5713 5712 5711 5710 5710 5710 5710 5710 5709 5709 5708 5708 5708 5709 5709 5710 5710 5710 5710 5708 5708 5709 5709 5710 5710 5710 5710 5710 5710 5710 5709 5709 5709 5709 5710 5709 5709 5709 5709 5709 5708
5711 5710 5709 5709 5707 5707 5706 5706 5706 5705 5705 5704 5703 5703 5703 5703 5704 5704 5705 5705 5705 5705 5704 5702 5703 5704 5705 5705 5705 5705 5704 5704 5704 5704 5704 5704 5704 5704 5703 5703 5703 5703 5703
5708 5707 5705 5705 5704 5703 5703 5702 5701 5701 5700 5698 5698 5697 5698 5698 5698 5700 5701 5701 5700 5700 5699 5698 5697 5698 5698 5699 5699 5699 5699 5698 5698 5698 5698 5699 5698 5698 5698 5698 5698 5698 5698
5704 5703 5702 5702 5701 5700 5699 5698 5697 5696 5695 5694 5694 5693 5693 5694 5694 5695 5695 5695 5695 5695 5695 5695 5695 5693 5692 5693 5693 5693 5693 5693 5693 5693 5693 5693 5693 5693 5693 5693 5693 5694 5693
5700 5699 5699 5698 5697 5696 5695 5695 5694 5692 5691 5691 5690 5688 5689 5690 5690 5689 5690 5690 5690 5689 5690 5690 5690 5690 5689 5687 5687 5687 5687 5687 5687 5687 5687 5687 5687 5687 5687 5688 5688 5689 5689
5696 5696 5696 5695 5694 5692 5691 5691 5690 5689 5688 5688 5688 5686 5684 5684 5684 5685 5685 5684 5685 5685 5685 5685 5685 5685 5685 5684 5682 5681 5681 5682 5682 5682 5682 5682 5682 5682 5682 5683 5683 5683 5683
5693 5692 5692 5692 5691 5690 5689 5687 5687 5685 5684 5685 5686 5685 5682 5680 5680 5681 5680 5680 5680 5680 5680 5680 5680 5680 5680 5679 5678 5676 5676 5676 5677 5677 5676 5676 5676 5676 5676 5677 5677 5677 5678
5690 5689 5688 5688 5688 5687 5685 5685 5685 5683 5682 5681 5681 5681 5683 5681 5678 5675 5676 5676 5675 5675 5675 5675 5675 5675 5675 5674 5672 5671 5671 5671 5671 5671 5671 5671 5671 5671 5671 5671 5671 5672 5672
5687 5686 5685 5685 5684 5684 5683 5681 5680 5680 5680 5679 5678 5678 5676 5675 5677 5674 5670 5670 5670 5670 5670 5670 5669 5669 5669 5669 5667 5666 5665 5665 5665 5666 5666 5666 5666 5665 5665 5665 5666 5666 5666
5685 5684 5682 5681 5681 5680 5679 5678 5677 5676 5676 5675 5675 5675 5673 5672 5671 5671 5668 5666 5666 5665 5665 5665 5665 5664 5664 5663 5662 5661 5660 5660 5660 5660 5660 5660 5660 5660 5660 5660 5660 5661 5661
5682 5681 5679 5678 5677 5676 5675 5674 5673 5673 5672 5671 5671 5671 5670 5669 5669 5667 5665 5663 5662 5662 5661 5661 5660 5660 5659 5659 5658 5656 5655 5655 5655 5655 5655 5655 5655 5655 5654 5654 5655 5655 5656
5682 5679 5676 5675 5674 5672 5671 5670 5670 5669 5670 5669 5667 5666 5665 5665 5664 5662 5660 5658 5657 5658 5658 5658 5657 5656 5655 5655 5653 5652 5652 5651 5650 5650 5650 5650 5650 5649 5650 5649 5649 5650 5650
5679 5677 5674 5672 5671 5669 5668 5667 5666 5666 5665 5664 5663 5662 5661 5660 5659 5658 5657 5656 5654 5653 5653 5654 5653 5652 5651 5650 5649 5649 5649 5647 5646 5646 5646 5645 5645 5645 5645 5644 5644 5644 5644
5677 5674 5673 5670 5668 5666 5664 5663 5662 5661 5661 5659 5657 5657 5656 5656 5654 5653 5652 5652 5651 5650 5650 5651 5649 5647 5646 5646 5644 5645 5645 5643 5642 5642 5641 5641 5640 5640 5640 5639 5639 5639 5638
5674 5672 5670 5668 5666 5664 5662 5660 5659 5658 5657 5656 5655 5654 5652 5651 5649 5648 5647 5647 5647 5646 5645 5645 5645 5644 5642 5642 5641 5641 5641 5640 5640 5638 5637 5636 5636 5635 5635 5634 5634 5634 5633
5671 5669 5667 5665 5663 5661 5659 5658 5655 5654 5653 5652 5652 5651 5649 5647 5645 5645 5643 5643 5642 5642 5641 5639 5640 5639 5639 5638 5637 5636 5636 5636 5636 5634 5633 5632 5631 5631 5630 5630 5629 5629 5629
5668 5666 5664 5662 5660 5658 5656 5654 5653 5652 5650 5649 5648 5647 5646 5645 5642 5641 5639 5639 5639 5638 5636 5636 5636 5635 5634 5633 5632 5631 5632 5631 5632 5631 5629 5628 5627 5627 5626 5626 5625 5625 5624
5665 5663 5661 5659 5657 5655 5653 5651 5649 5648 5647 5645 5644 5644 5643 5642 5640 5638 5636 5636 5635 5633 5632 5632 5631 5631 5629 5629 5628 5627 5628 5628 5628 5627 5626 5625 5624 5623 5623 5622 5621 5621 5620
5661 5660 5658 5655 5653 5651 5649 5648 5646 5644 5643 5641 5641 5640 5639 5637 5634 5633 5632 5632 5631 5630 5629 5628 5627 5627 5626 5624 5624 5625 5624 5624 5625 5624 5623 5623 5622 5622 5621 5619 5618 5616 5615
5657 5655 5653 5651 5649 5647 5643 5640 5640 5640 5640 5639 5637 5637 5635 5632 5629 5627 5625 5625 5625 5626 5626 5625 5625 5624 5624 5622 5621 5620 5620 5620 5620 5620 5619 5620 5619 5619 5618 5617 5615 5613 5611
5652 5650 5649 5647 5645 5642 5638 5635 5633 5635 5636 5636 5635 5633 5632 5630 5627 5627 5624 5620 5619 5618 5618 5621 5621 5621 5620 5619 5617 5616 5615 5615 5616 5616 5614 5615 5615 5615 5614 5613 5610 5608 5606
5648 5646 5644 5643 5640 5638 5634 5632 5630 5631 5632 5632 5631 5630 5628 5627 5625 5624 5623 5621 5620 5618 5616 5615 5616 5616 5615 5614 5613 5612 5611 5610 5611 5609 5607 5609 5610 5610 5609 5607 5604 5602 5600
5644 5642 5640 5639 5637 5634 5630 5628 5626 5628 5629 5628 5627 5626 5625 5624 5620 5617 5617 5617 5616 5614 5611 5608 5608 5608 5606 5605 5604 5604 5603 5603 5604 5604 5602 5602 5604 5603 5603 5602 5599 5596 5594
5640 5637 5636 5635 5633 5631 5627 5624 5622 5624 5625 5624 5623 5621 5617 5617 5614 5612 5613 5612 5611 5610 5608 5606 5603 5602 5601 5600 5598 5598 5599 5598 5599 5599 5597 5595 5596 5595 5595 5595 5592 5589 5587